Back to catalog

CZ-6A DEB

AlivePO
NORAD 60635·DEBRIS·🇨🇳 China

Launched Aug 6, 2024 from Taiyuan Satellite Launch Center

Loading…

Next Passes (next 24 hours)

TLE

FreshSource: Space-Track

Epoch: Sep 14, 2026, 09:52 UTC

1 60635U 24140AL  26257.41179072  .00000439  00000-0  27002-3 0  9994
2 60635  88.7909 249.7219 0149492   2.8986 357.3022 13.98515509107207

Track CZ-6A DEB in real time with AllMySat

Download on the App Store